Weather History for Breckenridge, TX

Change the Weather History Date:

Thursday, December 8, 2011

  Actual Average (KABI) Record (KABI)
Temperature  
Mean Temperature 46 °F 46 °F  
Max Temperature 59 °F 58 °F 79 °F (1897)
Min Temperature 32 °F 35 °F 10 °F (2005)
Degree Days  
Heating Degree Days 20 19  
Month to date heating degree days 142  
Since 1 July heating degree days 575  
Cooling Degree Days 0 0  
Month to date cooling degree days 0  
Year to date cooling degree days 2408  
Moisture  
Dew Point 30 °F    
Average Humidity 62    
Maximum Humidity 87    
Minimum Humidity 33    
Precipitation  
Precipitation 0.00 in 0.04 in 1.35 in (1899)
Month to date precipitation 0.32  
Year to date precipitation 23.91  
Sea Level Pressure  
Sea Level Pressure 30.13 in    
Wind  
Wind Speed 7 mph (South)    
Max Wind Speed 17 mph    
Max Gust Speed 22 mph    
Visibility 10 miles    
Events      
T = Trace of Precipitation, MM = Missing Value Source: NWS Daily Summary

Daily Weather History Graph

Daily Weather History Graph

Search for Another Location

Airport:

Trip Planner

Search our weather history database for the weather conditions in past years. The results will help you decide how hot, cold, wet, or windy it might be!

Date:

Astronomy

Dec. 08, 2011 Rise Set
Actual Time 7:25 AM CST 5:29 PM CST
Civil Twilight 6:58 AM CST 5:56 PM CST
Nautical Twilight 6:27 AM CST 6:27 PM CST
Astronomical Twilight 5:57 AM CST 6:57 PM CST
Moon 4:09 PM CST (12/8) 5:40 AM CST (12/8)
Length of Visible Light 10h 58m
Length of Day
10h 04m
Waxing Gibbous, 97% of the Moon is Illuminated
Dec 8
Waxing Gibbous
Dec 10
Full
Dec 17
Last Quarter
Dec 24
New
Jan 1
First Quarter

Hourly Weather History & Observations

Time (CST) Temp. Windchill Dew Point Humidity Pressure Visibility Wind Dir Wind Speed Gust Speed Precip Events Conditions
12:35 AM 33.8 °F 28.6 °F 28.4 °F 81% 30.23 in 10.0 mi South 5.8 mph - N/A   Clear
12:55 AM 33.8 °F 28.6 °F 28.4 °F 81% 30.23 in 10.0 mi South 5.8 mph - N/A   Clear
1:15 AM 35.6 °F 30.7 °F 28.4 °F 75% 30.22 in 10.0 mi South 5.8 mph - N/A   Clear
1:35 AM 33.8 °F 29.6 °F 28.4 °F 81% 30.21 in 10.0 mi South 4.6 mph - N/A   Clear
1:55 AM 33.8 °F 28.6 °F 28.4 °F 81% 30.20 in 10.0 mi South 5.8 mph - N/A   Clear
2:15 AM 33.8 °F 28.6 °F 28.4 °F 81% 30.19 in 10.0 mi SSE 5.8 mph - N/A   Clear
2:35 AM 35.6 °F 29.2 °F 28.4 °F 75% 30.18 in 10.0 mi SSE 8.1 mph - N/A   Clear
3:15 AM 35.6 °F 30.7 °F 28.4 °F 75% 30.18 in 10.0 mi SSE 5.8 mph - N/A   Clear
3:35 AM 35.6 °F 30.7 °F 28.4 °F 75% 30.17 in 10.0 mi South 5.8 mph - N/A   Clear
3:55 AM 35.6 °F 30.7 °F 28.4 °F 75% 30.17 in 10.0 mi South 5.8 mph - N/A   Clear
4:15 AM 33.8 °F 29.6 °F 28.4 °F 81% 30.16 in 10.0 mi South 4.6 mph - N/A   Clear
4:35 AM 32.0 °F 27.5 °F 28.4 °F 87% 30.16 in 10.0 mi South 4.6 mph - N/A   Clear
4:55 AM 32.0 °F 27.5 °F 28.4 °F 87% 30.16 in 10.0 mi SSW 4.6 mph - N/A   Clear
5:15 AM 32.0 °F 28.7 °F 28.4 °F 87% 30.16 in 10.0 mi South 3.5 mph - N/A   Clear
5:35 AM 32.0 °F 28.7 °F 28.4 °F 87% 30.16 in 10.0 mi SSE 3.5 mph - N/A   Clear
5:55 AM 32.0 °F 26.4 °F 28.4 °F 87% 30.17 in 10.0 mi South 5.8 mph - N/A   Clear
6:15 AM 32.0 °F 28.7 °F 28.4 °F 87% 30.17 in 10.0 mi SSE 3.5 mph - N/A   Clear
6:35 AM 32.0 °F 27.5 °F 28.4 °F 87% 30.19 in 10.0 mi SSE 4.6 mph - N/A   Clear
6:55 AM 32.0 °F 25.6 °F 28.4 °F 87% 30.18 in 10.0 mi SSE 6.9 mph - N/A   Clear
7:15 AM 32.0 °F 26.4 °F 28.4 °F 87% 30.19 in 10.0 mi South 5.8 mph - N/A   Clear
7:35 AM 32.0 °F 27.5 °F 28.4 °F 87% 30.19 in 10.0 mi SSE 4.6 mph - N/A   Clear
7:55 AM 32.0 °F 27.5 °F 28.4 °F 87% 30.20 in 10.0 mi South 4.6 mph - N/A   Clear
8:15 AM 33.8 °F 29.6 °F 28.4 °F 81% 30.20 in 10.0 mi South 4.6 mph - N/A   Clear
8:35 AM 35.6 °F 31.7 °F 30.2 °F 81% 30.20 in 10.0 mi South 4.6 mph - N/A   Clear
8:55 AM 37.4 °F 34.9 °F 30.2 °F 75% 30.19 in 10.0 mi SSW 3.5 mph - N/A   Clear
9:15 AM 41.0 °F 38.0 °F 30.2 °F 65% 30.19 in 10.0 mi South 4.6 mph - N/A   Clear
9:35 AM 42.8 °F 40.1 °F 30.2 °F 61% 30.20 in 10.0 mi South 4.6 mph - N/A   Clear
9:55 AM 44.6 °F 41.4 °F 30.2 °F 57% 30.20 in 10.0 mi South 5.8 mph - N/A   Clear
10:15 AM 46.4 °F 43.5 °F 30.2 °F 53% 30.20 in 10.0 mi SSW 5.8 mph - N/A   Clear
10:35 AM 48.2 °F - 30.2 °F 50% 30.20 in 10.0 mi South 9.2 mph - N/A   Clear
10:55 AM 50.0 °F - 30.2 °F 47% 30.19 in 10.0 mi South 9.2 mph - N/A   Clear
11:15 AM 51.8 °F - 30.2 °F 44% 30.18 in 10.0 mi South 11.5 mph - N/A   Clear
11:35 AM 51.8 °F - 30.2 °F 44% 30.17 in 10.0 mi SSW 10.4 mph - N/A   Clear
11:55 AM 51.8 °F - 30.2 °F 44% 30.15 in 10.0 mi South 9.2 mph - N/A   Clear
12:15 PM 53.6 °F - 30.2 °F 41% 30.14 in 10.0 mi South 6.9 mph - N/A   Clear
12:35 PM 53.6 °F - 30.2 °F 41% 30.12 in 10.0 mi South 12.7 mph 18.4 mph N/A   Clear
12:55 PM 55.4 °F - 30.2 °F 38% 30.11 in 10.0 mi SSW 11.5 mph - N/A   Clear
1:15 PM 55.4 °F - 30.2 °F 38% 30.09 in 10.0 mi South 12.7 mph - N/A   Clear
1:35 PM 55.4 °F - 28.4 °F 36% 30.08 in 10.0 mi South 13.8 mph 19.6 mph N/A   Clear
1:55 PM 57.2 °F - 28.4 °F 33% 30.07 in 10.0 mi South 11.5 mph 18.4 mph N/A   Clear
2:15 PM 59.0 °F - 30.2 °F 34% 30.07 in 10.0 mi SSW 12.7 mph 18.4 mph N/A   Clear
2:35 PM 57.2 °F - 30.2 °F 36% 30.06 in 10.0 mi South 13.8 mph 18.4 mph N/A   Clear
2:55 PM 57.2 °F - 30.2 °F 36% 30.05 in 10.0 mi South 11.5 mph 19.6 mph N/A   Clear
3:15 PM 57.2 °F - 30.2 °F 36% 30.05 in 10.0 mi South 12.7 mph 19.6 mph N/A   Clear
3:35 PM 55.4 °F - 30.2 °F 38% 30.04 in 10.0 mi South 17.3 mph - N/A   Clear
3:55 PM 55.4 °F - 30.2 °F 38% 30.04 in 10.0 mi South 15.0 mph - N/A   Clear
4:15 PM 55.4 °F - 32.0 °F 41% 30.04 in 10.0 mi South 16.1 mph 21.9 mph N/A   Clear
4:35 PM 53.6 °F - 32.0 °F 44% 30.03 in 10.0 mi South 11.5 mph - N/A   Clear
4:55 PM 53.6 °F - 32.0 °F 44% 30.03 in 10.0 mi South 9.2 mph - N/A   Clear
5:15 PM 51.8 °F - 32.0 °F 47% 30.03 in 10.0 mi South 8.1 mph - N/A   Clear
5:35 PM 50.0 °F - 32.0 °F 50% 30.03 in 10.0 mi SE 5.8 mph - N/A   Clear
5:55 PM 50.0 °F - 32.0 °F 50% 30.03 in 10.0 mi SE 6.9 mph - N/A   Clear
6:15 PM 46.4 °F 42.4 °F 32.0 °F 57% 30.04 in 10.0 mi SE 8.1 mph - N/A   Clear
6:35 PM 46.4 °F 41.9 °F 32.0 °F 57% 30.04 in 10.0 mi SE 9.2 mph - N/A   Clear
7:15 PM 44.6 °F 39.7 °F 32.0 °F 61% 30.06 in 10.0 mi SE 9.2 mph - N/A   Clear
7:35 PM 44.6 °F 40.2 °F 32.0 °F 61% 30.06 in 10.0 mi SE 8.1 mph - N/A   Clear
7:55 PM 44.6 °F 39.7 °F 32.0 °F 61% 30.07 in 10.0 mi SSE 9.2 mph - N/A   Clear
8:15 PM 44.6 °F 40.2 °F 32.0 °F 61% 30.08 in 10.0 mi SE 8.1 mph - N/A   Clear
8:55 PM 44.6 °F 39.2 °F 32.0 °F 61% 30.08 in 10.0 mi SE 10.4 mph - N/A   Clear
9:15 PM 42.8 °F 37.0 °F 32.0 °F 66% 30.08 in 10.0 mi SSE 10.4 mph - N/A   Clear
9:35 PM 42.8 °F 36.6 °F 32.0 °F 66% 30.08 in 10.0 mi SSE 11.5 mph - N/A   Clear
9:55 PM 42.8 °F 36.6 °F 32.0 °F 66% 30.08 in 10.0 mi SSE 11.5 mph - N/A   Clear
10:15 PM 42.8 °F 36.2 °F 32.0 °F 66% 30.08 in 10.0 mi South 12.7 mph 18.4 mph N/A   Clear
10:35 PM 42.8 °F 37.0 °F 32.0 °F 66% 30.08 in 10.0 mi South 10.4 mph 16.1 mph N/A   Clear
10:55 PM 42.8 °F 37.0 °F 32.0 °F 66% 30.09 in 10.0 mi South 10.4 mph - N/A   Clear
11:15 PM 42.8 °F 37.5 °F 30.2 °F 61% 30.09 in 10.0 mi South 9.2 mph - N/A   Clear
11:35 PM 44.6 °F 38.8 °F 30.2 °F 57% 30.09 in 10.0 mi South 11.5 mph 16.1 mph N/A   Clear
11:55 PM 44.6 °F 40.2 °F 30.2 °F 57% 30.09 in 10.0 mi South 8.1 mph 16.1 mph N/A   Clear